New Richmond, WI

5:41 AM CST on February 08, 2016 (GMT -0600)
New Richmond Municipal

Weather History for KRNH - August, 2013

Change the Weather History Date:

Tuesday, August 20, 2013

  Actual Average (KMSP) Record (KMSP)
Temperature  
Mean Temperature 78 °F 71 °F  
Max Temperature 90 °F 80 °F 97 °F (1972)
Min Temperature 68 °F 62 °F 40 °F (1950)
Degree Days  
Heating Degree Days 0 0  
Month to date heating degree days 0  
Since 1 June heating degree days 49  
Since 1 July heating degree days 5  
Cooling Degree Days 14 6  
Month to date cooling degree days 146  
Year to date cooling degree days 622  
Since 1 June cooling degree days 580  
Growing Degree Days 28 (Base 50)    
Moisture  
Dew Point 65 °F    
Average Humidity 66    
Maximum Humidity 80    
Minimum Humidity 46    
Precipitation  
Precipitation 0.00 in 0.14 in 2.23 in (1891)
Month to date precipitation 2.91  
Year to date precipitation 20.78  
Snow  
Snow 0.00 in 0.00 in 0.00 in ()
Month to date snowfall 0.0  
Since 1 June snowfall 0.0  
Since 1 July snowfall 0.0  
Snow Depth -    
Sea Level Pressure  
Sea Level Pressure 29.92 in    
Wind  
Wind Speed 8 mph (South)    
Max Wind Speed 18 mph    
Max Gust Speed 23 mph    
Visibility 10 miles    
Events      
T = Trace of Precipitation, MM = Missing Value Source: NWS Daily Summary

Daily Weather History Graph

Daily Weather History Graph

Search for Another Location

Airport or City:

Trip Planner

Search our weather history database for the weather conditions in past years. The results will help you decide how hot, cold, wet, or windy it might be!

Date:

Astronomy

Aug. 20, 2013 Rise Set
Actual Time 6:17 AM CDT 8:08 PM CDT
Civil Twilight 5:46 AM CDT 8:39 PM CDT
Nautical Twilight 5:07 AM CDT 9:17 PM CDT
Astronomical Twilight 4:25 AM CDT 9:59 PM CDT
Moon 7:36 PM CDT (8/20) 5:49 AM CDT (8/20)
Length of Visible Light 14h 53m
Length of Day
13h 50m
Full, 100% of the Moon is Illuminated
Aug 20
Full
Aug 20
Full
Aug 28
Last Quarter
Sep 5
New
Sep 12
First Quarter

Hourly Weather History & Observations

Time (CDT) Temp. Heat Index Dew Point Humidity Pressure Visibility Wind Dir Wind Speed Gust Speed Precip Events Conditions
12:15 AM 71.1 °F - 63.9 °F 78% 29.95 in 10.0 mi South 5.8 mph - N/A   Scattered Clouds
12:35 AM 70.9 °F - 63.7 °F 78% 29.95 in 10.0 mi South 5.8 mph - N/A   Clear
12:55 AM 70.9 °F - 63.5 °F 77% 29.95 in 10.0 mi South 8.1 mph - N/A   Clear
1:15 AM 70.7 °F - 63.1 °F 77% 29.95 in 10.0 mi South 6.9 mph - N/A   Clear
1:35 AM 70.3 °F - 63.0 °F 77% 29.94 in 10.0 mi South 6.9 mph - N/A   Clear
1:55 AM 69.8 °F - 62.8 °F 78% 29.94 in 10.0 mi South 5.8 mph - N/A   Clear
2:15 AM 69.4 °F - 62.6 °F 79% 29.94 in 10.0 mi South 6.9 mph - N/A   Clear
2:35 AM 68.9 °F - 62.4 °F 80% 29.94 in 10.0 mi South 6.9 mph - N/A   Clear
2:55 AM 68.9 °F - 62.2 °F 79% 29.94 in 10.0 mi South 5.8 mph - N/A   Clear
3:15 AM 68.9 °F - 62.2 °F 79% 29.94 in 10.0 mi South 5.8 mph - N/A   Scattered Clouds
3:35 AM 69.1 °F - 62.1 °F 78% 29.93 in 10.0 mi South 5.8 mph - N/A   Mostly Cloudy
3:55 AM 68.9 °F - 61.9 °F 78% 29.93 in 10.0 mi South 5.8 mph - N/A   Scattered Clouds
4:15 AM 68.9 °F - 61.9 °F 78% 29.93 in 10.0 mi South 6.9 mph - N/A   Scattered Clouds
4:35 AM 69.1 °F - 61.9 °F 78% 29.93 in 10.0 mi South 6.9 mph - N/A   Scattered Clouds
4:55 AM 69.1 °F - 61.9 °F 78% 29.93 in 10.0 mi South 5.8 mph - N/A   Mostly Cloudy
5:15 AM 68.7 °F - 61.7 °F 78% 29.93 in 10.0 mi SSE 4.6 mph - N/A   Scattered Clouds
5:35 AM 68.4 °F - 61.7 °F 79% 29.93 in 10.0 mi South 4.6 mph - N/A   Clear
5:55 AM 68.4 °F - 61.7 °F 79% 29.94 in 10.0 mi South 4.6 mph - N/A   Clear
6:15 AM 68.2 °F - 61.7 °F 80% 29.94 in 10.0 mi South 5.8 mph - N/A   Scattered Clouds
6:35 AM 68.0 °F - 61.7 °F 80% 29.94 in 10.0 mi SSE 5.8 mph - N/A   Scattered Clouds
6:55 AM 68.0 °F - 61.7 °F 80% 29.95 in 10.0 mi SSE 4.6 mph - N/A   Clear
7:15 AM 68.5 °F - 61.7 °F 79% 29.94 in 10.0 mi SSE 3.5 mph - N/A   Clear
7:35 AM 70.0 °F - 62.1 °F 76% 29.95 in 10.0 mi South 4.6 mph - N/A   Clear
7:55 AM 70.9 °F - 62.2 °F 74% 29.95 in 10.0 mi South 8.1 mph - N/A   Clear
8:15 AM 72.3 °F - 62.8 °F 72% 29.95 in 10.0 mi South 6.9 mph - N/A   Clear
8:35 AM 73.8 °F - 63.0 °F 69% 29.95 in 10.0 mi South 8.1 mph - N/A   Scattered Clouds
8:55 AM 74.3 °F - 63.1 °F 68% 29.95 in 10.0 mi South 9.2 mph - N/A   Scattered Clouds
9:15 AM 76.3 °F - 63.9 °F 65% 29.95 in 10.0 mi South 8.1 mph - N/A   Scattered Clouds
9:35 AM 77.2 °F - 63.7 °F 63% 29.95 in 10.0 mi SSW 10.4 mph - N/A   Clear
9:55 AM 78.4 °F - 64.2 °F 62% 29.94 in 10.0 mi South 8.1 mph - N/A   Clear
10:15 AM 79.2 °F - 64.2 °F 60% 29.94 in 10.0 mi SSW 9.2 mph - N/A   Clear
10:35 AM 80.1 °F 81.8 °F 64.4 °F 59% 29.94 in 10.0 mi South 10.4 mph - N/A   Clear
10:55 AM 81.0 °F 82.7 °F 64.8 °F 58% 29.94 in 10.0 mi South 9.2 mph - N/A   Clear
11:15 AM 82.0 °F 83.8 °F 65.1 °F 56% 29.94 in 10.0 mi SSE 8.1 mph - N/A   Clear
11:35 AM 82.9 °F 84.8 °F 65.3 °F 55% 29.94 in 10.0 mi South 6.9 mph - N/A   Clear
11:55 AM 83.8 °F 85.8 °F 65.7 °F 54% 29.94 in 10.0 mi South 10.4 mph 16.1 mph N/A   Clear
12:15 PM 84.2 °F 86.3 °F 66.0 °F 54% 29.93 in 10.0 mi SSE 9.2 mph - N/A   Clear
12:35 PM 85.3 °F 87.6 °F 66.2 °F 53% 29.92 in 10.0 mi South 10.4 mph - N/A   Clear
12:55 PM 86.0 °F 88.2 °F 66.2 °F 51% 29.92 in 10.0 mi South 10.4 mph - N/A   Clear
1:15 PM 87.6 °F 90.4 °F 66.7 °F 50% 29.91 in 10.0 mi South 12.7 mph - N/A   Clear
1:35 PM 87.8 °F 90.4 °F 66.4 °F 49% 29.91 in 10.0 mi South 10.4 mph 18.4 mph N/A   Clear
1:55 PM 88.2 °F 90.6 °F 66.4 °F 48% 29.90 in 10.0 mi South 12.7 mph 18.4 mph N/A   Clear
2:15 PM 89.4 °F 91.9 °F 66.0 °F 46% 29.90 in 10.0 mi SSW 11.5 mph - N/A   Clear
2:35 PM 89.4 °F 91.9 °F 66.4 °F 46% 29.90 in 10.0 mi South 11.5 mph 16.1 mph N/A   Clear
2:55 PM 89.8 °F 92.5 °F 66.4 °F 46% 29.90 in 10.0 mi SSW 11.5 mph - N/A   Clear
3:15 PM 89.4 °F 91.9 °F 66.4 °F 46% 29.89 in 10.0 mi South 18.4 mph 21.9 mph N/A   Scattered Clouds
3:35 PM 88.9 °F 91.4 °F 66.4 °F 47% 29.89 in 10.0 mi South 15.0 mph 20.7 mph N/A   Mostly Cloudy
3:55 PM 89.6 °F 92.2 °F 66.6 °F 46% 29.88 in 10.0 mi South 11.5 mph 23.0 mph N/A   Mostly Cloudy
4:15 PM 89.8 °F 92.9 °F 67.1 °F 47% 29.89 in 10.0 mi SSW 11.5 mph 20.7 mph N/A   Scattered Clouds
4:35 PM 89.4 °F 92.7 °F 67.1 °F 48% 29.88 in 10.0 mi SSW 13.8 mph 19.6 mph N/A   Scattered Clouds
4:55 PM 86.9 °F 89.9 °F 67.3 °F 52% 29.89 in 10.0 mi SSW 11.5 mph - N/A   Mostly Cloudy
5:15 PM 86.0 °F 89.1 °F 67.6 °F 54% 29.89 in 10.0 mi SSW 9.2 mph - N/A   Overcast
5:35 PM 86.0 °F 89.4 °F 68.0 °F 55% 29.89 in 10.0 mi SSW 10.4 mph - N/A   Mostly Cloudy
5:55 PM 85.3 °F 88.5 °F 68.2 °F 56% 29.89 in 10.0 mi SSW 10.4 mph 17.3 mph N/A   Mostly Cloudy
6:15 PM 85.5 °F 88.8 °F 68.4 °F 56% 29.89 in 10.0 mi SSW 11.5 mph - N/A   Mostly Cloudy
6:35 PM 84.7 °F 88.5 °F 68.9 °F 59% 29.89 in 10.0 mi SSW 9.2 mph - N/A   Mostly Cloudy
6:55 PM 84.6 °F 88.2 °F 68.9 °F 59% 29.89 in 10.0 mi SSW 9.2 mph - N/A   Mostly Cloudy
7:15 PM 84.4 °F 88.2 °F 69.1 °F 60% 29.89 in 10.0 mi South 9.2 mph 16.1 mph N/A   Scattered Clouds
7:35 PM 83.7 °F 87.2 °F 69.1 °F 61% 29.89 in 10.0 mi SSW 11.5 mph - N/A   Scattered Clouds
7:55 PM 82.6 °F 86.4 °F 69.6 °F 65% 29.89 in 10.0 mi South 6.9 mph - N/A   Scattered Clouds
8:15 PM 81.3 °F 84.8 °F 69.8 °F 68% 29.90 in 10.0 mi South 8.1 mph - N/A   Clear
8:35 PM 80.6 °F 83.9 °F 70.0 °F 70% 29.90 in 10.0 mi South 5.8 mph - N/A   Scattered Clouds
8:55 PM 79.9 °F - 69.8 °F 71% 29.90 in 10.0 mi South 6.9 mph - N/A   Scattered Clouds
9:15 PM 79.5 °F - 69.8 °F 72% 29.90 in 10.0 mi South 6.9 mph - N/A   Scattered Clouds
9:35 PM 79.0 °F - 69.4 °F 72% 29.91 in 10.0 mi South 8.1 mph - N/A   Scattered Clouds
9:55 PM 78.4 °F - 69.3 °F 73% 29.91 in 10.0 mi South 6.9 mph - N/A   Scattered Clouds
10:15 PM 77.9 °F - 69.1 °F 74% 29.91 in 10.0 mi South 5.8 mph - N/A   Scattered Clouds
10:35 PM 77.0 °F - 68.9 °F 76% 29.91 in 10.0 mi South 5.8 mph - N/A   Clear
10:55 PM 76.5 °F - 68.9 °F 77% 29.91 in 10.0 mi South 6.9 mph - N/A   Clear
11:15 PM 75.9 °F - 68.5 °F 78% 29.90 in 10.0 mi South 6.9 mph - N/A   Clear
11:35 PM 76.1 °F - 68.0 °F 76% 29.90 in 10.0 mi South 9.2 mph - N/A   Clear
11:55 PM 75.7 °F - 67.5 °F 75% 29.90 in 10.0 mi South 8.1 mph - N/A   Clear